Regional Weather Roundup
Issued by NWS

Home | Current Version | Previous Version | Text Only | Print | Product List | Glossary On
Versions: 1 2 3 4 5 6 7 8 9 10 11 12 13 14 15 16 17 18 19 20 21 22 23 24 25 26 27 28 29 30 31 32 33 34 35 36 37 38 39 40 41 42 43 44 45 46 47 48 49 50
000
ASUS43 KOAX 021202
RWRNE

WEATHER ROUNDUP FOR NEBRASKA
NATIONAL WEATHER SERVICE OMAHA NE
700 AM CDT TUE JUN 02 2015

NOTES: SATELLITE DATA IS BEING USED TO AUGMENT CLOUD COVER ABOVE
       12000 FEET.
       "FAIR" INDICATES FEW OR NO CLOUDS BELOW 12,000 FEET WITH NO
       SIGNIFICANT WEATHER AND/OR OBSTRUCTIONS TO VISIBILITY.

  * THESE STATIONS DO NOT REPORT WEATHER SUCH AS RAIN...SNOW OR FOG.

NEZ001>004-019>022-054>056-021300-
NEBRASKA PANHANDLE

CITY           SKY/WX    TMP DP  RH WIND       PRES   REMARKS
SCOTTSBLUFF    MOCLDY    63  54  72 N7        29.95R
6HR MIN TEMP:  57; 6HR MAX TEMP:  65; 6HR PCP: TRACE;

ALLIANCE       PTCLDY    60  56  86 W10       29.93R
6HR MIN TEMP:  57; 6HR MAX TEMP:  62;

CHADRON        CLEAR     60  53  77 S13       29.84F
6HR MIN TEMP:  56; 6HR MAX TEMP:  73;

SIDNEY         PTCLDY    56  54  93 S9        29.97F
6HR MIN TEMP:  56; 6HR MAX TEMP:  59; 6HR PCP: TRACE;

$$

NEZ057>060-069>072-079>082-021300-
SOUTHWEST NEBRASKA

CITY           SKY/WX    TMP DP  RH WIND       PRES   REMARKS
NORTH PLATTE   CLOUDY    62  55  77 N3        29.84R
6HR MIN TEMP:  62; 6HR MAX TEMP:  66; 6HR PCP:  0.08;

IMPERIAL       PTCLDY    58  55  90 S9        29.93R
6HR MIN TEMP:  57; 6HR MAX TEMP:  62; 6HR PCP:  0.06;

MCCOOK         CLOUDY    60  59  96 S8        29.91F
6HR MIN TEMP:  60; 6HR MAX TEMP:  67; 6HR PCP:  1.25;

$$

NEZ005>010-023>029-035>040-094-021300-
NORTH CENTRAL NEBRASKA

CITY           SKY/WX    TMP DP  RH WIND       PRES   REMARKS
BROKEN BOW     CLOUDY    64  57  78 SE6       29.86F
6HR MIN TEMP:  64; 6HR MAX TEMP:  67; 6HR PCP:  0.01;

ORD            CLOUDY    61  56  83 SE14      29.88F
6HR MIN TEMP:  61; 6HR MAX TEMP:  64;

$$

NEZ041-046>049-061>064-073>077-083>087-021300-
SOUTH CENTRAL NEBRASKA

CITY           SKY/WX    TMP DP  RH WIND       PRES   REMARKS
GRAND ISLAND   CLOUDY    59  57  93 SE17      29.93F
6HR MIN TEMP:  59; 6HR MAX TEMP:  65;

HASTINGS       CLOUDY    60  58  92 S13G22    29.96F
6HR MIN TEMP:  60; 6HR MAX TEMP:  64; 6HR PCP: TRACE;

KEARNEY *      CLOUDY    61  57  88 S20       29.89F
$$

NEZ011>018-030>034-042>045-021300-
NORTHEAST NEBRASKA

CITY           SKY/WX    TMP DP  RH WIND       PRES   REMARKS
TEKAMAH        CLOUDY    59  54  83 S15       30.03F
6HR MIN TEMP:  58; 6HR MAX TEMP:  61;

$$

NEZ050>053-065>068-078-088>093-021300-
SOUTHEAST NEBRASKA

CITY           SKY/WX    TMP DP  RH WIND       PRES   REMARKS
LINCOLN        CLOUDY    58  53  84 S8        30.06R
6HR MIN TEMP:  58; 6HR MAX TEMP:  61;

OMAHA EPPLEY   CLOUDY    58  54  86 S13       30.05F
6HR MIN TEMP:  57; 6HR MAX TEMP:  62;

FALLS CITY     PTSUNNY   56  53  90 SE5       30.08R
6HR MIN TEMP:  54; 6HR MAX TEMP:  57;

$$

NEZ044-045-051>053-067-021300-
OMAHA AREA

CITY           SKY/WX    TMP DP  RH WIND       PRES   REMARKS
OMAHA EPPLEY   CLOUDY    58  54  86 S13       30.05F
6HR MIN TEMP:  57; 6HR MAX TEMP:  62;

OFFUTT AFB     PTSUNNY   56  53  89 SE7       30.05F
$$



USA.gov is the U.S. government's official web portal to all federal, state and local government web resources and services.